RH
94 82 65 48 27 36 86 97 86 60 74 80 78 90 100 62 28 21 10 6 6 7 8 9 10 10 14 12 12 11 12 14 17 21 15 12 9 8 7 7 6 7 7 8 9
95 83 47 47 44 86 100 83 56 53 72 100 88 100 91 40 28 16 12 6 7 9 10 10 11 13 14 13 12 11 10 12 15 18 14 13 10 8 8 8 8 8 10 10 10
99 67 41 41 62 90 87 68 59 52 93 98 100 100 71 38 36 16 9 7 9 10 12 12 12 16 16 13 10 10 10 10 15 14 11 11 10 8 9 9 9 10 9 10 8
98 49 68 71 98 100 95 68 61 78 89 100 100 95 58 44 33 14 8 8 8 10 12 11 14 18 18 15 12 10 11 10 10 11 10 9 9 10 10 10 9 9 9 8 9
95 64 99 100 97 100 100 95 85 90 96 100 100 72 48 46 24 12 8 9 9 11 12 12 16 17 19 17 14 10 11 11 11 10 9 8 9 10 10 9 9 9 9 9 10
69 88 92 100 100 97 98 86 93 100 100 100 93 58 50 55 26 11 9 8 10 11 11 13 17 18 21 21 17 15 11 11 10 9 8 8 9 9 9 10 11 11 11 11 12
69 84 91 98 78 87 86 88 100 100 100 100 73 55 61 68 27 11 11 10 12 12 13 17 20 19 19 22 24 20 14 14 12 11 10 10 11 11 11 14 16 16 13 17 19
96 100 100 92 92 86 85 100 100 100 100 87 64 68 73 57 24 12 12 12 12 12 13 19 21 19 18 20 29 26 19 17 16 16 15 15 15 15 15 16 18 19 18 17 16
100 100 100 100 100 100 96 100 100 100 91 70 63 81 77 44 16 13 11 12 12 11 14 20 19 18 22 24 32 34 29 26 27 22 20 20 17 17 17 17 17 18 18 18 15
99 99 100 100 100 100 85 100 100 96 69 54 65 88 62 33 16 14 12 13 13 11 14 19 21 21 23 25 32 36 37 36 33 35 30 25 22 22 21 19 17 16 19 21 18
94 100 100 100 100 100 100 100 100 77 53 52 86 87 58 23 18 16 14 13 12 13 13 17 21 22 23 25 36 36 37 36 27 32 37 35 32 32 31 30 27 23 18 20 22
98 100 100 100 100 100 100 100 84 59 55 68 99 91 32 20 17 17 17 15 14 13 12 14 19 22 23 24 36 37 38 39 42 36 36 31 31 33 33 30 30 25 26 30 34
99 99 100 100 100 100 100 92 59 47 46 74 100 92 29 23 19 19 20 19 17 14 13 14 18 21 23 24 36 40 42 45 46 44 41 37 33 31 34 32 37 32 39 44 45
100 100 100 100 100 100 95 43 35 33 40 100 100 87 33 24 19 19 21 21 21 18 14 15 17 21 25 28 37 36 36 44 51 58 51 53 46 42 35 34 39 38 49 52 50
98 100 100 100 100 95 71 48 33 37 43 64 100 94 42 22 20 21 22 21 23 22 21 19 18 22 27 31 32 29 30 38 55 65 63 54 48 42 49 62 55 56 66 60 56
100 100 100 100 100 87 68 44 36 52 59 90 100 100 85 28 21 22 22 21 22 22 22 22 22 22 25 27 29 31 33 35 64 79 76 68 68 74 72 77 75 69 59 62 59
100 100 100 100 93 71 50 42 70 99 91 100 96 97 100 75 30 25 24 23 25 25 24 23 22 21 23 26 28 32 35 37 57 97 84 85 96 97 96 91 96 75 72 63 58
100 100 100 100 92 62 38 33 38 84 100 100 96 75 92 96 57 33 30 25 26 27 25 26 26 24 26 28 30 33 39 47 62 88 93 94 100 100 100 100 100 94 71 58 57
100 100 100 100 92 74 43 33 34 38 42 52 58 100 100 100 87 62 43 31 28 29 28 32 50 42 35 37 45 49 58 65 66 76 96 98 91 100 100 100 100 100 96 57 57
100 100 100 100 100 84 58 41 44 49 100 100 100 100 100 100 100 86 70 49 37 39 40 64 96 89 85 89 91 96 87 77 78 89 100 100 96 100 100 100 100 100 98 84 66
91 88 97 100 100 100 87 57 45 43 77 95 99 100 100 100 100 100 91 79 72 80 87 93 100 99 90 88 92 95 100 99 99 99 93 99 100 100 100 93 66 71 80 65 65
87 81 96 100 100 100 100 84 52 51 48 65 68 99 100 100 100 100 100 100 100 100 100 100 100 100 100 100 100 100 100 100 96 100 100 86 100 99 99 99 100 97 80 71 73
100 100 91 82 100 100 100 100 73 56 58 64 57 56 65 85 99 100 100 100 100 100 100 93 98 100 100 100 100 100 100 100 100 99 98 96 89 100 99 100 94 96 93 96 82
57 85 100 100 98 98 100 100 100 80 64 65 78 74 69 65 67 79 81 99 100 100 100 99 100 94 95 81 94 100 98 93 100 100 98 100 76 100 99 95 75 80 69 66 63
78 61 61 68 82 100 100 100 100 100 92 89 76 73 46 68 66 56 73 78 86 100 100 100 100 90 98 83 76 93 100 98 82 77 72 100 97 100 100 94 93 73 88 66 57
78 100 100 78 57 73 81 100 100 100 96 100 100 100 69 75 51 72 79 86 88 89 96 100 100 100 100 100 92 82 100 100 93 100 86 89 93 74 84 87 92 75 80 89 79
75 96 100 100 100 93 88 89 85 98 100 100 95 86 89 89 87 99 95 88 77 96 96 100 100 100 100 100 82 86 100 100 100 100 92 81 82 75 84 86 100 100 100 97 82
Wind_Speed
49 48 46 49 52 53 53 49 51 56 56 59 60 58 38 33 27 23 22 19 18 19 17 19 24 26 28 31 29 28 25 18 12 8 8 9 9 12 14 17 19 19 18 18 21
56 49 49 49 51 51 51 54 54 58 58 59 58 52 32 30 23 22 21 19 18 17 18 21 24 24 27 29 28 29 25 18 12 7 8 10 12 15 17 19 19 19 20 21 24
52 49 53 52 53 53 54 56 60 61 56 57 49 42 26 25 22 20 20 17 17 17 19 21 22 22 26 27 28 25 20 18 11 7 9 12 15 18 18 20 23 24 26 28 28
52 58 54 53 55 54 57 57 59 56 54 49 42 28 25 21 20 19 19 16 17 19 19 20 20 22 24 25 25 23 19 16 13 12 13 16 19 20 20 25 27 29 28 28 28
59 60 53 54 59 60 59 54 53 46 45 44 33 22 22 18 20 19 19 17 17 17 18 20 18 21 22 23 23 22 18 16 14 17 17 18 19 20 21 24 25 26 25 26 28
60 54 57 53 55 50 47 48 38 45 43 33 23 22 20 19 20 20 18 18 17 16 20 20 19 20 23 23 22 22 19 16 16 17 19 19 20 20 22 25 28 29 26 26 26
56 54 52 51 52 46 42 38 41 41 34 22 21 22 22 20 21 20 18 17 16 18 21 19 19 21 23 24 23 21 17 17 18 19 20 21 21 24 25 27 28 29 28 29 31
38 43 44 46 41 37 39 38 43 38 26 19 22 24 23 20 22 21 18 19 18 19 22 19 21 23 25 26 25 21 19 19 19 19 22 23 23 25 25 27 29 30 31 32 33
36 36 37 35 35 33 33 39 40 32 20 21 22 23 22 20 24 22 22 21 19 20 21 20 20 22 26 26 26 23 21 20 22 22 23 24 27 26 29 30 30 30 31 34 35
37 36 35 33 31 34 36 41 32 21 21 22 24 23 21 22 23 24 24 23 22 22 20 21 22 26 27 26 26 26 25 26 25 24 24 26 27 29 31 33 34 37 39 40 42
38 37 35 31 31 34 36 34 26 20 22 22 26 22 21 23 24 25 27 28 28 26 23 22 24 25 28 26 26 27 26 26 27 29 32 33 34 35 35 36 37 38 40 43 45
37 35 35 33 34 36 36 30 22 22 23 25 27 24 23 22 24 24 25 29 30 29 27 25 24 26 28 26 26 28 28 29 29 32 34 35 37 38 40 39 41 42 44 48 51
36 34 34 34 36 36 30 25 23 25 25 27 29 27 25 25 25 25 26 27 29 31 32 30 27 29 28 28 29 29 29 31 32 33 37 38 40 40 42 43 47 48 50 53 55
34 33 34 38 35 31 27 25 24 27 27 26 28 27 27 28 27 26 28 27 28 30 30 31 30 30 28 28 29 32 32 33 34 34 38 41 42 43 44 45 49 52 53 56 57
31 36 39 39 33 28 28 25 24 28 31 28 28 28 29 29 28 28 28 27 28 30 31 32 33 32 30 29 31 33 34 35 36 38 39 41 43 46 47 50 53 54 55 59 60
34 38 41 37 32 29 28 25 25 28 28 28 29 31 31 30 31 31 30 28 28 29 29 32 34 34 33 33 35 37 38 39 39 40 41 40 43 48 46 48 50 54 58 61 64
35 40 38 36 33 29 27 25 28 29 29 31 31 32 31 31 33 33 33 30 29 29 31 32 34 35 36 37 39 40 41 41 42 42 43 43 48 49 46 47 50 55 59 64 65
37 36 37 37 33 32 30 29 31 34 31 33 34 36 36 34 36 37 36 34 33 32 33 34 34 36 38 40 41 41 41 42 43 44 44 45 48 49 47 47 50 56 60 64 65
32 34 39 39 38 34 30 31 32 33 35 36 39 41 42 40 40 38 38 37 37 36 34 35 36 37 39 41 42 42 44 46 48 48 49 49 41 49 49 50 53 52 59 66 66
34 32 37 43 40 37 34 33 33 33 35 35 35 38 37 41 41 42 41 40 40 38 37 37 37 39 40 42 43 45 46 49 50 50 51 54 47 45 48 48 51 53 59 65 67
40 39 37 36 42 42 40 37 37 37 41 42 36 35 33 39 42 44 46 46 44 43 43 43 42 43 43 43 44 46 46 47 48 50 50 50 56 47 49 52 55 57 59 64 67
46 45 41 39 41 46 45 41 41 41 43 45 45 41 38 35 36 40 44 44 43 44 45 42 42 46 46 47 48 48 49 49 49 51 53 50 55 50 51 54 56 60 64 66 68
48 48 50 46 42 45 47 45 45 44 43 45 44 45 49 47 41 39 41 42 43 44 43 43 42 44 46 44 47 48 48 48 50 51 54 52 54 54 52 55 57 60 63 66 69
56 51 54 50 47 48 47 47 50 50 48 46 47 48 44 43 49 51 50 46 44 45 45 46 45 44 45 46 47 48 49 51 50 52 49 57 53 59 54 56 60 58 63 64 66
59 58 59 54 54 55 49 50 50 54 53 52 51 53 47 48 50 47 50 53 53 52 49 47 49 51 51 50 50 52 53 55 59 63 56 56 53 57 57 60 60 63 66 65 65
57 60 61 61 59 58 57 59 57 55 52 53 54 60 55 57 54 52 53 54 55 56 55 54 53 54 54 54 54 56 59 60 61 61 55 54 56 62 61 63 63 61 64 67 69
63 64 61 61 63 64 64 63 63 63 61 63 63 63 60 61 60 59 58 58 55 58 58 59 59 58 55 58 59 58 62 66 63 60 60 60 62 60 61 61 63 61 65 66 67
Wind_Direction
244 250 256 261 266 269 271 281 287 292 297 299 303 308 304 315 318 301 311 312 313 307 317 324 330 339 343 343 345 346 341 331 328 297 286 273 294 333 341 344 347 348 341 341 329
245 255 259 264 265 266 275 284 285 294 295 298 301 301 302 315 306 299 304 310 309 311 317 321 330 342 344 344 343 343 343 341 333 312 297 285 304 322 328 331 333 335 334 331 328
245 250 259 263 261 269 276 281 285 290 298 297 295 291 308 308 296 297 299 308 308 314 315 318 328 340 343 345 348 347 348 353 348 334 330 318 313 317 318 321 323 320 320 320 322
243 255 254 258 263 265 271 279 284 289 295 288 286 292 307 300 291 294 295 301 306 309 307 313 327 336 341 342 349 354 352 353 354 348 337 324 318 318 313 316 320 320 318 317 316
246 250 256 260 260 268 272 278 288 288 285 281 283 301 300 295 287 286 290 298 305 304 301 314 323 335 341 342 351 356 355 353 349 343 335 332 330 327 318 319 328 328 323 322 324
246 250 253 257 263 271 278 283 283 280 276 275 286 298 289 292 285 281 286 297 303 300 306 312 318 334 347 342 348 352 358 356 348 344 341 344 336 330 329 336 338 336 330 331 331
245 249 252 257 261 272 277 278 276 273 270 276 291 289 282 281 275 277 285 292 296 303 311 309 316 325 337 344 343 347 348 349 351 351 344 346 343 338 335 339 341 336 329 335 337
242 243 250 260 259 263 269 270 273 268 269 279 286 275 277 272 268 270 276 282 291 304 311 304 311 318 330 334 338 339 341 345 349 348 345 346 346 342 338 334 332 337 334 332 335
242 244 246 245 251 256 263 269 269 263 265 280 273 270 268 263 264 267 272 274 283 297 306 300 309 317 324 326 332 334 333 337 342 343 342 342 339 343 342 339 339 339 337 336 338
241 245 244 249 253 255 259 265 255 253 271 273 265 261 259 260 263 266 271 272 278 287 300 298 303 312 318 316 325 328 329 328 331 337 338 339 340 340 340 341 342 344 345 344 342
241 241 246 253 255 257 260 249 247 259 268 266 261 254 255 260 264 265 266 270 274 280 290 298 302 303 313 309 317 323 322 325 324 327 329 331 331 332 333 334 337 339 344 345 342
241 241 244 250 253 253 249 246 247 258 258 260 259 254 254 259 261 265 269 269 274 276 282 290 297 299 307 306 311 318 318 320 320 320 321 323 326 328 328 332 334 336 340 340 342
233 237 249 249 245 249 242 242 251 256 257 259 259 251 253 258 263 266 272 277 274 276 278 281 288 293 301 303 307 312 314 315 315 316 315 316 320 323 324 327 329 331 335 337 338
236 246 247 242 243 239 238 244 256 256 253 259 259 249 254 257 257 264 271 277 277 276 276 278 283 289 294 297 301 306 310 311 311 313 313 315 316 317 320 324 326 330 331 332 333
240 244 239 240 241 235 237 246 258 255 252 258 264 251 253 254 254 260 269 277 278 283 280 279 281 284 288 293 297 301 305 307 307 308 312 313 316 319 318 319 323 325 326 329 331
244 240 239 238 235 237 241 248 253 252 257 260 263 258 252 253 254 259 267 274 278 283 285 283 284 281 284 290 295 300 303 304 304 304 309 314 318 319 315 315 319 321 322 326 328
243 240 242 241 234 239 245 246 246 252 258 262 265 269 262 255 256 260 266 270 278 282 283 283 286 284 283 287 294 299 301 300 300 302 304 311 317 323 314 314 318 318 321 325 328
240 244 247 244 238 240 246 250 248 242 252 260 266 270 268 258 257 259 264 269 274 279 281 283 285 285 285 287 292 296 300 300 300 300 303 308 313 317 319 313 313 318 322 324 328
247 251 252 248 242 241 244 250 252 253 254 262 266 269 265 258 255 259 264 267 271 274 279 282 284 286 286 289 293 296 299 300 301 303 304 307 314 316 318 318 319 322 321 323 328
247 253 254 251 252 246 247 246 250 249 254 264 272 271 272 266 258 257 263 267 269 272 276 279 282 286 287 289 292 295 296 297 299 303 306 307 309 313 315 317 317 320 319 321 325
247 250 252 260 257 250 249 252 250 252 251 259 262 271 275 275 273 266 264 267 269 273 274 276 280 283 286 287 290 293 295 298 301 302 306 311 306 310 310 311 312 316 317 320 324
250 254 254 256 256 254 250 250 252 253 256 257 256 260 268 272 276 276 278 276 278 279 279 283 284 282 282 287 289 293 294 296 298 299 302 307 306 309 310 312 315 314 317 321 323
255 257 258 255 255 257 259 254 252 252 255 259 260 264 261 264 270 273 275 278 277 279 280 280 283 285 287 292 292 296 298 299 297 296 298 305 307 306 308 308 310 314 318 319 321
250 252 254 255 258 256 258 260 254 254 256 256 260 263 265 268 267 269 270 272 275 275 275 277 278 280 282 286 287 290 297 300 302 301 303 301 307 306 309 309 310 311 314 317 318
255 255 252 253 258 257 259 259 258 257 255 258 261 262 264 266 267 270 273 273 270 272 275 276 278 281 280 281 285 287 292 295 297 300 301 298 303 304 307 309 311 313 314 316 320
252 253 255 258 257 256 258 259 261 261 259 256 260 262 263 266 266 269 271 273 275 274 274 274 277 279 279 278 281 287 290 293 296 298 300 299 301 304 306 308 308 312 313 316 319
253 254 254 258 260 262 261 260 260 260 259 263 264 266 266 265 266 269 270 272 274 277 278 276 275 276 278 279 283 289 286 291 294 294 295 299 301 302 304 307 307 311 312 312 314